DELTA 2 R/B(1)

Last updated on Thu Oct 30 2025 00:02:15 GMT+0000 (Coordinated Universal Time)

1 20453U 90008B 25302.30400251 .00039090 00000+0 70641-3 0 9999 2 20453 35.6078 306.5890 0118431 134.4515 226.5975 15.41191620905760
UTC large
Height (km)
Speed (km/s)
/
Latitude / Longitude
Inclination (degrees)
Orbital Period (minutes)
Azimuth
Elevation
Range (km)
Doppler Factor

Next 0 passes for location: London (51.5072 / 0.1276)

Sorry there are no passes over London.